Location: ?????????
(55.6553°N, 38.9075°E)
Time: 08:32:48
(UTC+00:00)

Resurs 1-4 Rocket - Pass Details

Date: 18 October 2019
Orbit: 800 x 813 km, 98.6° (Epoch: 17 November)

Event Time Altitude Azimuth Distance (km) Brightness Sun altitude
Rises 02:11:05 0° 10° (N) 3,349 5.5 -16.1°
Reaches altitude 10° 02:15:29 10° 336° (NNW) 2,415 4.4 -15.4°
Maximum altitude 02:16:44 11° 322° (NW) 2,354 4.2 -15.3°
Enters shadow 02:17:39 10° 312° (NW) 2,385 4.2 -15.1°
